Weather History for Port Weller, ON

Change the Weather History Date:

Wednesday, October 16, 2013

  Actual Average Record
Temperature  
Mean Temperature 64 °F -  
Max Temperature 70 °F - - ()
Min Temperature 58 °F - - ()
Degree Days  
Heating Degree Days 1    
Growing Degree Days 14 (Base 50)    
Moisture  
Dew Point 58 °F    
Average Humidity 78    
Maximum Humidity 92    
Minimum Humidity 61    
Precipitation  
Precipitation 0.12 in - - ()
Sea Level Pressure  
Sea Level Pressure 29.81 in    
Wind  
Wind Speed 9 mph ()    
Max Wind Speed 21 mph    
Max Gust Speed -    
T = Trace of Precipitation, MM = Missing Value Source: Averaged Metar Reports

Daily Weather History Graph

Daily Weather History Graph

Search for Another Location

Airport:

Trip Planner

Search our weather history database for the weather conditions in past years. The results will help you decide how hot, cold, wet, or windy it might be!

Date:

Astronomy

Oct. 16, 2013 Rise Set
Actual Time 7:32 AM EDT 6:31 PM EDT
Civil Twilight 7:03 AM EDT 7:00 PM EDT
Nautical Twilight 6:30 AM EDT 7:33 PM EDT
Astronomical Twilight 5:57 AM EDT 8:06 PM EDT
Moon 5:13 PM EDT (10/16) 4:54 AM EDT (10/16)
Length of Visible Light 11h 57m
Length of Day
10h 59m
Waxing Gibbous, 94% of the Moon is Illuminated
Oct 16
Waxing Gibbous
Oct 18
Full
Oct 26
Last Quarter
Nov 3
New
Nov 10
First Quarter

Hourly Weather History & Observations

Time (EDT) Temp. Dew Point Humidity Pressure Visibility Wind Dir Wind Speed Gust Speed Precip Events Conditions
12:00 AM 64.9 °F 57.2 °F 76% 29.90 in - North - - N/A   Unknown
1:00 AM 64.2 °F 57.2 °F 78% 29.88 in - North - - N/A   Unknown
2:00 AM 66 °F 56 °F 61% 29.87 in - 9.2 mph - -  
2:00 AM 65.7 °F 55.8 °F 70% 29.87 in - North - - N/A   Unknown
3:00 AM 64.2 °F 56.7 °F 76% 29.87 in - North - - N/A   Unknown
4:00 AM 63.7 °F 57.4 °F 80% 29.85 in - North - - N/A   Unknown
5:00 AM 62 °F 58 °F 84% 29.83 in - NNE 12.7 mph - -  
5:00 AM 62.2 °F 58.5 °F 87% 29.83 in - North - - 0.04 in   Unknown
6:00 AM 61.2 °F 58.8 °F 92% 29.83 in - North - - 0.08 in   Unknown
7:00 AM 62.1 °F 59.0 °F 90% 29.83 in - North - - N/A   Unknown
8:00 AM 63 °F 60 °F 86% 29.83 in - 11.5 mph - -  
8:00 AM 62.8 °F 59.9 °F 90% 29.83 in - North - - N/A   Unknown
9:00 AM 65.3 °F 60.6 °F 85% 29.84 in - North - - N/A   Unknown
10:00 AM 65.7 °F 60.6 °F 84% 29.83 in - North - - N/A   Unknown
11:00 AM 66 °F 60 °F 77% 29.83 in - NNE 9.2 mph - -  
11:00 AM 66.4 °F 60.4 °F 81% 29.83 in - North - - N/A   Unknown
12:00 PM 66.9 °F 59.9 °F 78% 29.81 in - North - - N/A   Unknown
1:00 PM 67.6 °F 59.0 °F 74% 29.78 in - North - - N/A   Unknown
2:00 PM 68 °F 58 °F 64% 29.76 in - 12.7 mph - -  
2:00 PM 68.0 °F 58.5 °F 71% 29.76 in - North - - N/A   Unknown
3:00 PM 69.6 °F 58.6 °F 68% 29.75 in - North - - N/A   Unknown
4:00 PM 67.5 °F 58.6 °F 73% 29.74 in - North - - N/A   Unknown
5:00 PM 66 °F 59 °F 72% 29.73 in - SSE 10.4 mph - -  
5:00 PM 66.2 °F 59.2 °F 78% 29.73 in - North - - N/A   Unknown
6:00 PM 64.2 °F 61.0 °F 89% 29.73 in - North - - 0.04 in   Unknown
7:00 PM 63.9 °F 60.8 °F 90% 29.73 in - North - - N/A   Unknown
8:00 PM 63 °F 59 °F 83% 29.75 in - 5.8 mph - -  
8:00 PM 62.6 °F 59.2 °F 89% 29.75 in - North - - N/A   Unknown
9:00 PM 61.2 °F 52.2 °F 72% 29.79 in - North - - N/A   Unknown
10:00 PM 59.9 °F 50.7 °F 72% 29.81 in - North - - N/A   Unknown
11:00 PM 58 °F 50 °F 66% 29.83 in - NNE 20.7 mph - -  
11:00 PM 58.3 °F 49.6 °F 73% 29.83 in - North - - N/A   Unknown